Regional Weather Roundup
Issued by NWS Sioux Falls, SD

Home | Current Version | Previous Version | Text Only | Print | Product List | Glossary On
Versions: 1 2 3 4 5 6 7 8 9 10 11 12 13 14 15 16 17 18 19 20 21 22 23 24 25 26 27 28 29 30 31 32 33 34 35 36 37 38 39 40 41 42 43 44 45 46 47 48 49 50
000
ASUS43 KFSD 311010
RWRFSD

WEATHER ROUNDUP FOR SE SOUTH DAKOTA/SW MINNESOTA/NW IOWA
NATIONAL WEATHER SERVICE SIOUX FALLS SD
500 AM CDT WED AUG 31 2016

NOTE: "FAIR" INDICATES FEW OR NO CLOUDS BELOW 12,000 FEET WITH NO
SIGNIFICANT WEATHER AND OR OBSTRUCTIONS TO VISIBILITY.


SDZ038>040-050-052>070-311100-
SOUTHEAST SOUTH DAKOTA

CITY           SKY/WX    TMP DP  RH WIND       PRES   REMARKS
BROOKINGS      CLEAR     55  54  96 CALM      30.23R
CHAMBERLAIN    CLEAR     66  66 100 SE5       30.19S
HURON          HVY RAIN  65  61  87 S5        30.21R FOG
MADISON        FAIR      55  55 100 CALM      30.24R
MITCHELL       MOCLDY    64  63  96 SE5       30.21R
SIOUX FALLS    PTCLDY    58  56  93 NE3       30.21F
WINNER         FAIR      68  64  87 S7        30.19F
YANKTON          N/A     63  61  94 NE3       30.19S VSB 1/4
$$

MNZ071-072-080-081-089-090-097-098-311100-
SOUTHWEST MINNESOTA

CITY           SKY/WX    TMP DP  RH WIND       PRES   REMARKS
FAIRMONT       CLEAR     55  54  96 NW5       30.21S
JACKSON        FOG       54  52  94 CALM      30.22S VSB 1
LUVERNE        CLEAR     55  52  88 CALM      30.22F
MARSHALL       CLEAR     55  53  93 W5        30.22S
MONTEVIDEO     CLEAR     57  54  88 CALM      30.23S
REDWOOD FALLS  CLEAR     59  55  87 CALM      30.20F
TRACY          CLEAR     60  56  88 W3        30.22S
WINDOM         CLEAR     54  52  94 CALM      30.22S
WORTHINGTON    CLEAR     55  53  93 CALM      30.22F
$$

IAZ001>003-012>014-020>022-031-032-NEZ013-014-SDZ071-311100-
NORTHWEST IOWA

CITY           SKY/WX    TMP DP  RH WIND       PRES   REMARKS
CHEROKEE       PTCLDY    59  59 100 NE3       30.20S FOG
DENISON        FOG       61  61 100 CALM      30.18R VSB 1/4
ESTHERVILLE    CLEAR     52  52 100 NW5       30.21S
LE MARS        CLEAR     57  57 100 CALM      30.21S
ORANGE CITY    CLEAR     63  63 100 NE3       30.22R
SHELDON        CLEAR     54  54 100 CALM      30.20S FOG
SIOUX CITY     FOG       62  60  93 CALM      30.20R VSB 1/4
SPENCER        FOG       54  53  97 CALM      30.21S VSB 1/4
STORM LAKE     PTCLDY    61  59  94 NE6       30.21R
$$

ABBREVIATIONS USED IN REMARKS
   TC - TEMPERATURE IN CELSIUS
  WCI - WIND CHILL INDEX
   HX - HEAT INDEX
  VSB - VISIBILITY





USA.gov is the U.S. government's official web portal to all federal, state and local government web resources and services.